Weather History for Niagara Falls, NY

Change the Weather History Date:

Friday, April 4, 2014

  Actual Average Record
Temperature  
Mean Temperature 42 °F -  
Max Temperature 51 °F 46 °F 65 °F (1991)
Min Temperature 34 °F 30 °F 21 °F (2013)
Degree Days  
Heating Degree Days 22    
Moisture  
Dew Point 39 °F    
Average Humidity 84    
Maximum Humidity 93    
Minimum Humidity 64    
Precipitation  
Precipitation 0.41 in - - ()
Sea Level Pressure  
Sea Level Pressure 29.63 in    
Wind  
Wind Speed 14 mph (SSE)    
Max Wind Speed 34 mph    
Max Gust Speed 48 mph    
Visibility 8 miles    
Events Rain    
Averages and records for this station are not official NWS values.
T = Trace of Precipitation, MM = Missing Value Source: NWS Daily Summary

Daily Weather History Graph

Daily Weather History Graph

Search for Another Location

Airport:

Trip Planner

Search our weather history database for the weather conditions in past years. The results will help you decide how hot, cold, wet, or windy it might be!

Date:

Astronomy

Apr. 04, 2014 Rise Set
Actual Time 6:52 AM EDT 7:45 PM EDT
Civil Twilight 6:23 AM EDT 8:14 PM EDT
Nautical Twilight 5:49 AM EDT 8:48 PM EDT
Astronomical Twilight 5:13 AM EDT 9:24 PM EDT
Moon 10:02 AM EDT (4/4) 12:07 AM EDT (4/4)
Length of Visible Light 13h 50m
Length of Day
12h 53m
Waxing Crescent, 25% of the Moon is Illuminated
Apr 4
Waxing Crescent
Apr 7
First Quarter
Apr 15
Full
Apr 22
Last Quarter
Apr 29
New

Hourly Weather History & Observations

Time (EDT) Temp. Windchill Dew Point Humidity Pressure Visibility Wind Dir Wind Speed Gust Speed Precip Events Conditions
12:53 AM 34.0 °F 23.4 °F 23.0 °F 64% 29.99 in 10.0 mi East 17.3 mph 21.9 mph N/A   Overcast
1:53 AM 34.0 °F 24.2 °F 24.1 °F 67% 29.94 in 10.0 mi East 15.0 mph 21.9 mph N/A   Overcast
2:53 AM 35.1 °F 26.4 °F 24.1 °F 64% 29.93 in 10.0 mi East 12.7 mph - 0.00 in Rain Light Rain
3:42 AM 34.0 °F 25.0 °F 28.0 °F 79% 29.86 in 9.0 mi East 12.7 mph 23.0 mph 0.00 in Rain Light Rain
3:53 AM 34.0 °F 25.0 °F 28.0 °F 79% 29.90 in 10.0 mi East 12.7 mph - 0.00 in   Overcast
5:53 AM 36.0 °F 28.0 °F 30.0 °F 79% 29.84 in 10.0 mi East 11.5 mph - N/A   Overcast
6:03 AM 36.0 °F 28.0 °F 30.0 °F 79% 29.81 in 10.0 mi East 11.5 mph - N/A   Overcast
6:53 AM 36.0 °F 27.5 °F 30.9 °F 82% 29.82 in 10.0 mi East 12.7 mph - 0.00 in   Overcast
7:00 AM 36.0 °F 28.0 °F 30.9 °F 82% 29.78 in 10.0 mi East 11.5 mph - N/A   Overcast
7:19 AM 36.0 °F 28.0 °F 30.9 °F 82% 29.76 in 7.0 mi East 11.5 mph - 0.00 in Rain Light Rain
7:42 AM 36.0 °F 29.0 °F 32.0 °F 86% 29.75 in 7.0 mi East 9.2 mph - 0.00 in   Overcast
7:53 AM 37.0 °F 30.4 °F 32.0 °F 82% 29.78 in 7.0 mi East 9.2 mph - 0.00 in   Overcast
8:13 AM 37.0 °F 30.4 °F 33.1 °F 86% 29.74 in 7.0 mi East 9.2 mph - N/A   Overcast
8:53 AM 37.9 °F 31.5 °F 34.0 °F 86% 29.75 in 7.0 mi East 9.2 mph - N/A   Overcast
9:53 AM 41.0 °F 35.8 °F 36.0 °F 82% 29.73 in 7.0 mi East 8.1 mph - N/A   Overcast
10:53 AM 45.0 °F 41.2 °F 39.0 °F 80% 29.69 in 7.0 mi East 6.9 mph - N/A   Overcast
11:33 AM 48.9 °F - 41.0 °F 74% 29.63 in 7.0 mi SE 8.1 mph - 0.00 in Rain Light Rain
11:49 AM 48.2 °F - 42.8 °F 82% 29.62 in 2.5 mi SSE 8.1 mph - 0.00 in Rain Light Rain
11:53 AM 48.0 °F - 44.1 °F 86% 29.65 in 2.5 mi SE 6.9 mph - 0.00 in Rain Light Rain
12:09 PM 48.9 °F - 45.0 °F 86% 29.60 in 5.0 mi ESE 5.8 mph - 0.00 in Rain Light Rain
12:14 PM 48.9 °F - 45.0 °F 86% 29.59 in 7.0 mi ESE 5.8 mph - 0.00 in   Overcast
12:45 PM 50.0 °F - 46.9 °F 89% 29.57 in 7.0 mi ESE 5.8 mph - 0.00 in Rain Light Rain
12:53 PM 51.1 °F - 46.9 °F 86% 29.59 in 7.0 mi ESE 5.8 mph - 0.00 in Rain Light Rain
1:34 PM 51.1 °F - 46.9 °F 86% 29.54 in 5.0 mi SSE 8.1 mph - 0.00 in Rain Light Rain
1:53 PM 51.8 °F - 46.4 °F 82% 29.53 in 6.0 mi SSE 12.7 mph 18.4 mph N/A Rain Light Rain
2:04 PM 51.1 °F - 46.0 °F 83% 29.52 in 5.0 mi SSE 11.5 mph - 0.01 in Rain Light Rain
2:18 PM 50.0 °F - 46.0 °F 86% 29.51 in 2.5 mi SSE 15.0 mph 20.7 mph 0.02 in Rain Light Rain
2:49 PM 48.2 °F - 44.6 °F 87% 29.48 in 2.0 mi SSE 13.8 mph - 0.11 in Rain Light Rain
2:53 PM 48.0 °F - 45.0 °F 89% 29.51 in 1.8 mi SSE 13.8 mph - 0.15 in Rain Light Rain
3:01 PM 48.0 °F - 46.0 °F 93% 29.47 in 3.0 mi SE 8.1 mph - 0.07 in Rain Rain
3:53 PM 48.0 °F - 46.0 °F 93% 29.47 in 6.0 mi South 9.2 mph - 0.11 in Rain Light Rain
4:11 PM 48.0 °F - 45.0 °F 89% 29.44 in 6.0 mi South 12.7 mph - 0.01 in Rain Light Rain
4:53 PM 48.9 °F - 46.0 °F 90% 29.46 in 5.0 mi South 12.7 mph - 0.03 in Rain Light Rain
5:06 PM 48.9 °F - 46.0 °F 90% 29.43 in 10.0 mi SSW 15.0 mph 20.7 mph 0.00 in Rain Light Rain
5:53 PM 50.0 °F - 46.0 °F 86% 29.45 in 8.0 mi South 15.0 mph - 0.02 in Rain Light Rain
6:05 PM 50.0 °F - 46.0 °F 86% 29.41 in 10.0 mi South 17.3 mph - 0.00 in Rain Light Rain
6:53 PM 50.0 °F - 46.9 °F 89% 29.49 in 5.0 mi SW 19.6 mph 26.5 mph 0.07 in Rain Light Rain
7:20 PM 50.0 °F - 46.9 °F 89% 29.48 in 6.0 mi SSW 17.3 mph 24.2 mph 0.03 in Rain Light Rain
7:30 PM 48.9 °F - 46.9 °F 93% 29.49 in 10.0 mi SSW 18.4 mph 25.3 mph 0.03 in Rain Light Rain
7:53 PM 48.0 °F - 46.0 °F 93% 29.53 in 10.0 mi SW 20.7 mph - 0.03 in Rain Light Rain
8:10 PM 46.9 °F - 45.0 °F 93% 29.51 in 10.0 mi SW 20.7 mph 25.3 mph 0.00 in   Overcast
8:41 PM 45.0 °F 36.0 °F 42.1 °F 90% 29.53 in 10.0 mi WSW 25.3 mph 36.8 mph 0.00 in   Overcast
8:53 PM 44.1 °F 34.6 °F 39.9 °F 85% 29.57 in 10.0 mi SW 26.5 mph 36.8 mph 0.00 in   Overcast
9:08 PM 43.0 °F 32.4 °F 37.0 °F 80% 29.55 in 10.0 mi WSW 31.1 mph 43.7 mph N/A   Mostly Cloudy
9:53 PM 41.0 °F 29.1 °F 35.1 °F 79% 29.61 in 10.0 mi WSW 34.5 mph 48.3 mph N/A   Overcast
10:10 PM 39.9 °F 27.8 °F 35.1 °F 83% 29.58 in 10.0 mi SW 33.4 mph 44.9 mph N/A   Overcast
10:42 PM 39.0 °F 26.6 °F 34.0 °F 82% 29.60 in 9.0 mi SW 33.4 mph 41.4 mph 0.00 in   Light Drizzle
10:53 PM 39.0 °F 28.3 °F 34.0 °F 82% 29.63 in 9.0 mi SW 24.2 mph 36.8 mph 0.00 in   Light Drizzle
11:53 PM 37.9 °F 25.5 °F 33.1 °F 83% 29.65 in 10.0 mi SW 31.1 mph 42.6 mph 0.00 in   Overcast